Location: ???? ?????
(30.0052°N, 31.2891°E)
Time: 20:26:01
(UTC+00:00)

Iridium 16 - Pass Details

Date: 30 January 2023
Orbit: 765 x 769 km, 86.4° (Epoch: 01 April)

Event Time Altitude Azimuth Distance (km) Brightness Sun altitude
Rises 03:34:25 0° 189° (S) 3,215 8.8 -15.8°
Reaches altitude 10° 03:36:46 10° 192° (SSW) 2,293 8.0 -15.3°
Maximum altitude 03:41:50 61° 273° (W) 865 5.5 -14.3°
Drops below altitude 10° 03:46:56 10° 353° (N) 2,308 7.8 -13.2°
Sets 03:49:19 0° 357° (N) 3,238 8.6 -12.7°
